Location: Asheville, NC
(35.6000°N, 82.5500°W)
Time: 23:05:01
(UTC-04:00)

SO-50 - Visible Passes

Search period start: 23 April 2018 00:00
Search period end: 03 May 2018 00:00
Orbit: 602 x 685 km, 64.6° (Epoch: 23 April)

Date Brightness Start Highest point End Pass type
(mag) Time Alt. Az. Time Alt. Az. Time Alt. Az.
23 Apr ? 05:11:28 13° S 05:14:49 34° ESE 05:18:55 10° NE visible
24 Apr ? 05:36:32 18° SSW 05:39:52 86° WNW 05:44:27 10° NNE visible
25 Apr ? 04:23:50 20° SE 04:24:56 22° ESE 04:28:26 10° ENE visible
25 Apr ? 06:01:30 12° WSW 06:05:10 33° NW 06:09:19 10° N visible
26 Apr ? 04:48:43 44° S 04:49:53 61° ESE 04:54:23 10° NE visible
27 Apr ? 03:35:52 14° E 03:35:52 14° E 03:37:30 10° ENE visible
27 Apr ? 05:13:31 33° WSW 05:15:04 49° WNW 05:19:31 10° NNE visible
28 Apr ? 04:00:36 36° E 04:00:36 36° E 04:04:10 10° NE visible
28 Apr ? 05:38:14 15° W 05:40:32 21° NW 05:44:00 10° N visible
29 Apr ? 04:25:15 73° NNW 04:25:15 73° NNW 04:29:36 10° NNE visible
30 Apr ? 03:12:13 17° ENE 03:12:13 17° ENE 03:13:46 10° ENE visible
30 Apr ? 04:49:52 29° WNW 04:50:22 29° NW 04:54:23 10° N visible
01 May ? 03:36:46 36° NE 03:36:46 36° NE 03:39:34 10° NE visible
01 May ? 05:14:24 12° WNW 05:16:00 13° NW 05:18:15 10° NNW visible
02 May ? 04:01:16 37° NNW 04:01:16 37° NNW 04:04:38 10° NNE visible
